N22318S KSBA-KONT

Flight info

Callsign N22318S
Flight time N/A
Altitude 11000
Route KWANG6 RZS V12 PMD ZIGGY8
Aircraft C172/L-SFG/C

Departure

Time 2026-05-04 00:39
Airport Santa Barbara Municipal Airport (KSBA)

Arrival

Time N/A
Airport Ontario International Airport (KONT)
Time Latitude Longitude Altitude Speed Heading
2026-05-03 23:51 34.43243 -119.83560 15 ft 0 kts 252°
2026-05-04 00:34 34.43228 -119.83564 15 ft 8 kts 149°
2026-05-04 00:34 34.43154 -119.83538 14 ft 16 kts 177°
2026-05-04 00:34 34.43021 -119.83533 14 ft 22 kts 178°
2026-05-04 00:35 34.42913 -119.83513 14 ft 3 kts 132°
2026-05-04 00:35 34.42912 -119.83512 14 ft 0 kts 129°
2026-05-04 00:35 34.42889 -119.83468 14 ft 7 kts 151°
2026-05-04 00:36 34.42875 -119.83466 14 ft 0 kts 178°
2026-05-04 00:38 34.42859 -119.83466 14 ft 7 kts 181°
2026-05-04 00:38 34.42791 -119.83525 14 ft 18 kts 263°
2026-05-04 00:39 34.42784 -119.83788 17 ft 53 kts 267°
2026-05-04 00:39 34.42761 -119.84338 160 ft 71 kts 269°
2026-05-04 00:39 34.43130 -119.84697 435 ft 84 kts 349°
2026-05-04 00:39 34.43406 -119.85079 636 ft 76 kts 242°
2026-05-04 00:40 34.42820 -119.85126 737 ft 102 kts 147°
2026-05-04 00:40 34.42725 -119.84401 1101 ft 91 kts 58°
2026-05-04 00:40 34.43125 -119.83812 1324 ft 94 kts 15°
2026-05-04 00:40 34.43565 -119.84091 1626 ft 76 kts 274°
2026-05-04 00:41 34.43208 -119.84467 1901 ft 86 kts 178°
2026-05-04 00:41 34.42817 -119.83892 2190 ft 98 kts 105°
2026-05-04 00:41 34.42582 -119.83113 2484 ft 99 kts 111°
2026-05-04 00:41 34.42332 -119.82320 2720 ft 101 kts 115°
2026-05-04 00:42 34.42075 -119.81562 3028 ft 97 kts 116°
2026-05-04 00:42 34.41807 -119.80812 3257 ft 97 kts 116°
2026-05-04 00:42 34.41530 -119.80047 3460 ft 101 kts 118°
2026-05-04 00:42 34.41243 -119.79267 3697 ft 101 kts 116°
2026-05-04 00:43 34.40962 -119.78502 3964 ft 97 kts 115°
2026-05-04 00:43 34.40691 -119.77770 4216 ft 95 kts 113°
2026-05-04 00:43 34.40422 -119.77040 4449 ft 96 kts 114°
2026-05-04 00:43 34.40146 -119.76295 4682 ft 96 kts 114°
2026-05-04 00:44 34.39878 -119.75569 4931 ft 94 kts 114°
2026-05-04 00:44 34.39595 -119.74802 5009 ft 109 kts 114°
2026-05-04 00:44 34.39265 -119.73911 5009 ft 122 kts 114°
2026-05-04 00:44 34.38909 -119.72950 5010 ft 128 kts 113°
2026-05-04 00:45 34.38542 -119.71959 5007 ft 129 kts 114°
2026-05-04 00:45 34.38179 -119.70982 4998 ft 124 kts 114°
2026-05-04 00:45 34.37835 -119.70055 4988 ft 119 kts 113°
2026-05-04 00:45 34.37500 -119.69149 4987 ft 117 kts 113°
2026-05-04 00:46 34.37173 -119.68266 4988 ft 116 kts 114°
2026-05-04 00:46 34.36847 -119.67389 4992 ft 113 kts 114°
2026-05-04 00:46 34.36526 -119.66522 4991 ft 113 kts 113°
2026-05-04 00:46 34.36205 -119.65656 4992 ft 113 kts 114°
2026-05-04 00:47 34.35886 -119.64795 4995 ft 112 kts 113°
2026-05-04 00:47 34.35569 -119.63942 4993 ft 111 kts 112°
2026-05-04 00:47 34.35253 -119.63092 4991 ft 111 kts 112°
2026-05-04 00:47 34.34939 -119.62242 4989 ft 111 kts 111°
2026-05-04 00:48 34.34623 -119.61393 4990 ft 110 kts 112°
2026-05-04 00:48 34.34308 -119.60546 4991 ft 111 kts 111°
2026-05-04 00:48 34.33996 -119.59709 4991 ft 111 kts 112°
2026-05-04 00:48 34.33681 -119.58859 4990 ft 111 kts 111°
2026-05-04 00:49 34.33363 -119.58005 4990 ft 111 kts 112°
2026-05-04 00:49 34.33046 -119.57152 4992 ft 111 kts 112°
2026-05-04 00:49 34.32728 -119.56295 4991 ft 112 kts 111°
2026-05-04 00:49 34.32409 -119.55440 4997 ft 112 kts 112°
2026-05-04 00:50 34.32089 -119.54582 4996 ft 112 kts 113°
2026-05-04 00:50 34.31771 -119.53726 4992 ft 111 kts 113°
2026-05-04 00:50 34.31455 -119.52878 4993 ft 110 kts 113°
2026-05-04 00:50 34.31143 -119.52039 4989 ft 109 kts 112°
2026-05-04 00:51 34.30853 -119.51196 4991 ft 108 kts 103°
2026-05-04 00:51 34.30664 -119.50321 4998 ft 107 kts 104°
2026-05-04 00:51 34.30464 -119.49450 4999 ft 108 kts 104°
2026-05-04 00:51 34.30264 -119.48578 4998 ft 108 kts 104°
2026-05-04 00:52 34.30063 -119.47705 4994 ft 108 kts 104°
2026-05-04 00:52 34.29865 -119.46834 4994 ft 107 kts 104°
2026-05-04 00:52 34.29668 -119.45973 4994 ft 108 kts 104°
2026-05-04 00:52 34.29468 -119.45103 4994 ft 108 kts 104°
2026-05-04 00:53 34.29270 -119.44230 4994 ft 108 kts 104°
2026-05-04 00:53 34.29069 -119.43358 4994 ft 108 kts 103°
2026-05-04 00:53 34.28869 -119.42484 4994 ft 108 kts 104°
2026-05-04 00:53 34.28669 -119.41608 4994 ft 108 kts 104°
2026-05-04 00:54 34.28468 -119.40732 4994 ft 108 kts 104°
2026-05-04 00:54 34.28267 -119.39853 4995 ft 109 kts 104°
2026-05-04 00:54 34.28065 -119.38970 4996 ft 109 kts 104°
2026-05-04 00:54 34.27861 -119.38082 4997 ft 110 kts 104°
2026-05-04 00:55 34.27657 -119.37193 4996 ft 110 kts 104°
2026-05-04 00:55 34.27456 -119.36315 4997 ft 110 kts 104°
2026-05-04 00:55 34.27250 -119.35424 4998 ft 110 kts 104°
2026-05-04 00:55 34.27045 -119.34530 4998 ft 110 kts 104°
2026-05-04 00:56 34.26841 -119.33638 4996 ft 110 kts 104°
2026-05-04 00:56 34.26637 -119.32750 5017 ft 109 kts 104°
2026-05-04 00:56 34.26433 -119.31864 5020 ft 109 kts 103°
2026-05-04 00:56 34.26229 -119.30976 5023 ft 110 kts 104°
2026-05-04 00:57 34.26023 -119.30086 5029 ft 110 kts 104°
2026-05-04 00:57 34.25819 -119.29197 5026 ft 110 kts 104°
2026-05-04 00:57 34.25614 -119.28307 5022 ft 110 kts 104°
2026-05-04 00:57 34.25412 -119.27428 5023 ft 110 kts 104°
2026-05-04 00:58 34.25206 -119.26534 5022 ft 110 kts 103°
2026-05-04 00:58 34.25001 -119.25644 5022 ft 110 kts 104°
2026-05-04 00:58 34.24795 -119.24754 5024 ft 110 kts 105°
2026-05-04 00:58 34.24588 -119.23857 5022 ft 112 kts 107°
2026-05-04 00:59 34.24381 -119.22952 5023 ft 112 kts 107°
2026-05-04 00:59 34.24173 -119.22046 5024 ft 112 kts 106°
2026-05-04 00:59 34.23964 -119.21143 5024 ft 112 kts 106°
2026-05-04 00:59 34.23755 -119.20240 5024 ft 111 kts 106°
2026-05-04 01:00 34.23550 -119.19354 5023 ft 111 kts 106°
2026-05-04 01:00 34.23341 -119.18449 5024 ft 112 kts 106°
2026-05-04 01:00 34.23129 -119.17536 5025 ft 113 kts 106°
2026-05-04 01:00 34.22917 -119.16622 5026 ft 113 kts 107°
2026-05-04 01:01 34.22705 -119.15712 5023 ft 113 kts 107°
2026-05-04 01:01 34.22494 -119.14802 5022 ft 112 kts 106°
2026-05-04 01:01 34.22285 -119.13896 5021 ft 112 kts 106°
2026-05-04 01:01 34.22076 -119.12993 5020 ft 111 kts 106°
2026-05-04 01:02 34.21866 -119.12092 5020 ft 111 kts 106°
2026-05-04 01:02 34.21656 -119.11193 5020 ft 111 kts 107°
2026-05-04 01:02 34.21448 -119.10306 5020 ft 111 kts 107°
2026-05-04 01:02 34.21235 -119.09407 5020 ft 111 kts 107°
2026-05-04 01:03 34.21023 -119.08509 5020 ft 111 kts 107°
2026-05-04 01:03 34.20810 -119.07611 5019 ft 111 kts 107°
2026-05-04 01:03 34.20598 -119.06714 5020 ft 111 kts 106°
2026-05-04 01:03 34.20387 -119.05818 5018 ft 111 kts 107°
2026-05-04 01:04 34.20177 -119.04922 5015 ft 111 kts 106°
2026-05-04 01:04 34.19967 -119.04022 5015 ft 111 kts 106°
2026-05-04 01:04 34.19758 -119.03124 5013 ft 111 kts 107°
2026-05-04 01:04 34.19548 -119.02224 5014 ft 111 kts 106°
2026-05-04 01:05 34.19337 -119.01325 5011 ft 111 kts 106°
2026-05-04 01:05 34.19203 -119.00406 5009 ft 111 kts 94°
2026-05-04 01:05 34.19257 -118.99477 5008 ft 111 kts 79°
2026-05-04 01:05 34.19531 -118.98621 5007 ft 111 kts 79°
2026-05-04 01:06 34.19652 -118.97704 5012 ft 111 kts 85°
2026-05-04 01:06 34.19673 -118.96776 5014 ft 111 kts 90°
2026-05-04 01:06 34.19686 -118.95840 5015 ft 111 kts 89°
2026-05-04 01:06 34.19696 -118.94905 5018 ft 112 kts 93°
2026-05-04 01:07 34.19753 -118.93959 5018 ft 113 kts 88°
2026-05-04 01:07 34.19811 -118.93013 5018 ft 113 kts 89°
2026-05-04 01:07 34.19868 -118.92065 5017 ft 113 kts 89°
2026-05-04 01:07 34.19924 -118.91120 5013 ft 112 kts 90°
2026-05-04 01:08 34.19980 -118.90187 5009 ft 111 kts 89°
2026-05-04 01:08 34.20036 -118.89256 4998 ft 112 kts 89°
2026-05-04 01:08 34.20091 -118.88327 4998 ft 110 kts 88°
2026-05-04 01:08 34.20146 -118.87415 4995 ft 110 kts 90°
2026-05-04 01:09 34.20199 -118.86493 4993 ft 110 kts 90°
2026-05-04 01:09 34.20253 -118.85567 4994 ft 111 kts 90°
2026-05-04 01:09 34.20308 -118.84639 4996 ft 111 kts 89°
2026-05-04 01:09 34.20363 -118.83706 4997 ft 112 kts 89°
2026-05-04 01:10 34.20418 -118.82769 4996 ft 112 kts 89°
2026-05-04 01:10 34.20473 -118.81829 4996 ft 113 kts 89°
2026-05-04 01:10 34.20529 -118.80883 4999 ft 113 kts 90°
2026-05-04 01:10 34.20586 -118.79929 4998 ft 114 kts 89°
2026-05-04 01:11 34.20644 -118.78985 4991 ft 110 kts 89°
2026-05-04 01:11 34.20702 -118.78073 4980 ft 107 kts 88°
2026-05-04 01:11 34.20757 -118.77199 4984 ft 106 kts 89°
2026-05-04 01:11 34.20813 -118.76304 4990 ft 108 kts 89°
2026-05-04 01:12 34.20867 -118.75392 4994 ft 110 kts 90°
2026-05-04 01:12 34.20920 -118.74461 4996 ft 112 kts 90°
2026-05-04 01:12 34.20974 -118.73513 4996 ft 114 kts 90°
2026-05-04 01:12 34.21025 -118.72556 4990 ft 114 kts 89°
2026-05-04 01:13 34.21082 -118.71607 4988 ft 113 kts 89°
2026-05-04 01:13 34.21139 -118.70667 4987 ft 112 kts 88°
2026-05-04 01:13 34.21202 -118.69737 4983 ft 110 kts 89°
2026-05-04 01:13 34.21262 -118.68810 4985 ft 111 kts 88°
2026-05-04 01:14 34.21326 -118.67874 4986 ft 112 kts 88°
2026-05-04 01:14 34.21391 -118.66940 4985 ft 111 kts 88°
2026-05-04 01:14 34.21459 -118.66019 4980 ft 113 kts 92°
2026-05-04 01:14 34.21522 -118.65054 4981 ft 117 kts 95°
2026-05-04 01:15 34.21581 -118.64064 4983 ft 119 kts 95°
2026-05-04 01:15 34.21641 -118.63072 4983 ft 118 kts 95°
2026-05-04 01:15 34.21702 -118.62082 4983 ft 118 kts 92°
2026-05-04 01:15 34.21767 -118.61098 4982 ft 117 kts 92°
2026-05-04 01:16 34.21829 -118.60119 4982 ft 117 kts 93°
2026-05-04 01:16 34.21894 -118.59143 4976 ft 116 kts 95°
2026-05-04 01:16 34.21957 -118.58176 4978 ft 115 kts 92°
2026-05-04 01:16 34.22024 -118.57213 4977 ft 115 kts 94°
2026-05-04 01:17 34.22089 -118.56257 4981 ft 116 kts 91°
2026-05-04 01:17 34.22158 -118.55286 4977 ft 116 kts 93°
2026-05-04 01:17 34.22225 -118.54325 4978 ft 115 kts 95°
2026-05-04 01:17 34.22290 -118.53366 4979 ft 115 kts 94°
2026-05-04 01:18 34.22357 -118.52402 4974 ft 115 kts 94°
2026-05-04 01:18 34.22423 -118.51443 4974 ft 114 kts 93°
2026-05-04 01:18 34.22491 -118.50490 4974 ft 114 kts 92°
2026-05-04 01:18 34.22559 -118.49536 4975 ft 115 kts 94°
2026-05-04 01:19 34.22624 -118.48586 4974 ft 115 kts 96°
2026-05-04 01:19 34.22688 -118.47619 4975 ft 115 kts 94°
2026-05-04 01:19 34.22755 -118.46654 4973 ft 115 kts 94°
2026-05-04 01:19 34.22821 -118.45688 4972 ft 115 kts 93°
2026-05-04 01:20 34.22889 -118.44721 4971 ft 116 kts 95°
2026-05-04 01:20 34.22665 -118.43877 5011 ft 104 kts 132°
2026-05-04 01:20 34.22303 -118.43112 5015 ft 105 kts 129°
2026-05-04 01:20 34.21955 -118.42331 5013 ft 106 kts 124°
2026-05-04 01:21 34.21621 -118.41544 5013 ft 105 kts 118°
2026-05-04 01:21 34.21294 -118.40764 5003 ft 104 kts 117°
2026-05-04 01:21 34.20970 -118.39985 5000 ft 104 kts 117°
2026-05-04 01:21 34.20650 -118.39212 5001 ft 104 kts 117°
2026-05-04 01:22 34.20328 -118.38429 5002 ft 104 kts 117°
2026-05-04 01:22 34.20006 -118.37647 5000 ft 104 kts 117°
2026-05-04 01:22 34.19683 -118.36860 4993 ft 105 kts 117°
2026-05-04 01:22 34.19358 -118.36071 4992 ft 105 kts 118°
2026-05-04 01:23 34.19033 -118.35282 4994 ft 105 kts 119°
2026-05-04 01:23 34.18709 -118.34495 4994 ft 104 kts 119°
2026-05-04 01:23 34.18387 -118.33712 4992 ft 105 kts 119°
2026-05-04 01:23 34.18063 -118.32926 4993 ft 104 kts 120°
2026-05-04 01:24 34.17745 -118.32156 4995 ft 103 kts 120°
2026-05-04 01:24 34.17425 -118.31378 4994 ft 103 kts 120°
2026-05-04 01:24 34.17104 -118.30599 4994 ft 104 kts 120°
2026-05-04 01:24 34.16782 -118.29819 4993 ft 104 kts 119°
2026-05-04 01:25 34.16458 -118.29032 4995 ft 105 kts 120°
2026-05-04 01:25 34.16132 -118.28247 4995 ft 104 kts 120°
2026-05-04 01:25 34.15806 -118.27463 4994 ft 105 kts 120°
2026-05-04 01:25 34.15477 -118.26678 4992 ft 105 kts 119°
2026-05-04 01:26 34.15147 -118.25893 4991 ft 105 kts 119°
2026-05-04 01:26 34.14817 -118.25108 4993 ft 104 kts 120°
2026-05-04 01:26 34.14489 -118.24332 4993 ft 103 kts 120°
2026-05-04 01:26 34.14162 -118.23560 4990 ft 104 kts 120°
2026-05-04 01:27 34.13898 -118.22768 4981 ft 107 kts 95°
2026-05-04 01:27 34.13971 -118.21893 4993 ft 103 kts 109°
2026-05-04 01:27 34.13755 -118.21073 5002 ft 103 kts 109°
2026-05-04 01:27 34.13532 -118.20251 5006 ft 103 kts 112°
2026-05-04 01:28 34.13296 -118.19433 5000 ft 103 kts 112°
2026-05-04 01:28 34.13055 -118.18622 4995 ft 102 kts 112°
2026-05-04 01:28 34.12810 -118.17812 4996 ft 104 kts 112°
2026-05-04 01:28 34.12561 -118.16987 4997 ft 105 kts 114°
2026-05-04 01:29 34.12308 -118.16162 4997 ft 105 kts 113°
2026-05-04 01:29 34.12057 -118.15338 4998 ft 105 kts 114°
2026-05-04 01:29 34.11808 -118.14522 4997 ft 105 kts 114°
2026-05-04 01:29 34.11555 -118.13698 4999 ft 104 kts 115°
2026-05-04 01:30 34.11304 -118.12874 4994 ft 105 kts 114°
2026-05-04 01:30 34.11049 -118.12040 4991 ft 106 kts 114°
2026-05-04 01:30 34.10793 -118.11202 4992 ft 107 kts 114°
2026-05-04 01:30 34.10533 -118.10356 4994 ft 108 kts 112°
2026-05-04 01:31 34.10268 -118.09497 4995 ft 110 kts 113°
2026-05-04 01:31 34.10005 -118.08633 4994 ft 109 kts 114°
2026-05-04 01:31 34.09744 -118.07782 4994 ft 107 kts 114°
2026-05-04 01:31 34.09485 -118.06941 4991 ft 107 kts 114°
2026-05-04 01:32 34.09225 -118.06094 4956 ft 109 kts 113°
2026-05-04 01:32 34.08959 -118.05223 4972 ft 113 kts 112°
2026-05-04 01:32 34.08681 -118.04317 4978 ft 117 kts 112°
2026-05-04 01:32 34.08396 -118.03393 4987 ft 119 kts 112°
2026-05-04 01:33 34.08111 -118.02465 4984 ft 117 kts 114°
2026-05-04 01:33 34.07832 -118.01554 4983 ft 115 kts 113°
2026-05-04 01:33 34.07560 -118.00669 4981 ft 114 kts 112°
2026-05-04 01:33 34.07284 -117.99772 4981 ft 115 kts 113°
2026-05-04 01:34 34.07004 -117.98864 4982 ft 116 kts 114°
2026-05-04 01:34 34.06726 -117.97958 4982 ft 115 kts 113°
2026-05-04 01:34 34.06449 -117.97056 4981 ft 115 kts 114°
2026-05-04 01:34 34.06170 -117.96155 4980 ft 114 kts 114°
2026-05-04 01:35 34.05893 -117.95253 4985 ft 114 kts 113°
2026-05-04 01:35 34.05617 -117.94357 4989 ft 114 kts 113°
2026-05-04 01:35 34.05338 -117.93453 4991 ft 116 kts 114°
2026-05-04 01:35 34.05055 -117.92535 4994 ft 117 kts 113°
2026-05-04 01:36 34.04773 -117.91614 4993 ft 117 kts 114°
2026-05-04 01:36 34.04495 -117.90718 4989 ft 114 kts 112°
2026-05-04 01:36 34.04221 -117.89831 4999 ft 112 kts 114°
2026-05-04 01:36 34.03950 -117.88946 5003 ft 113 kts 112°
2026-05-04 01:37 34.03674 -117.88051 5004 ft 115 kts 113°
2026-05-04 01:37 34.03394 -117.87148 5001 ft 114 kts 115°
2026-05-04 01:37 34.03119 -117.86256 4997 ft 113 kts 114°
2026-05-04 01:37 34.02844 -117.85371 5003 ft 113 kts 112°
2026-05-04 01:38 34.02569 -117.84481 5003 ft 115 kts 113°
2026-05-04 01:38 34.02292 -117.83579 5005 ft 114 kts 113°
2026-05-04 01:38 34.02016 -117.82687 5005 ft 113 kts 112°
2026-05-04 01:38 34.01740 -117.81800 5003 ft 113 kts 114°
2026-05-04 01:39 34.01467 -117.80914 5001 ft 113 kts 114°
2026-05-04 01:39 34.01189 -117.80024 5007 ft 114 kts 112°
2026-05-04 01:39 34.01016 -117.79082 5016 ft 116 kts 101°
2026-05-04 01:39 34.00891 -117.78124 5015 ft 115 kts 102°
2026-05-04 01:40 34.00771 -117.77175 4996 ft 116 kts 101°
2026-05-04 01:40 34.00661 -117.76260 5144 ft 104 kts 101°
2026-05-04 01:40 34.00552 -117.75386 5113 ft 114 kts 101°
2026-05-04 01:40 34.00422 -117.74385 4911 ft 128 kts 101°
2026-05-04 01:41 34.00275 -117.73301 4717 ft 133 kts 101°
2026-05-04 01:41 34.00116 -117.72188 4518 ft 137 kts 102°
2026-05-04 01:41 33.99968 -117.71044 4317 ft 139 kts 101°
2026-05-04 01:41 33.99824 -117.69937 4303 ft 129 kts 101°
2026-05-04 01:42 33.99681 -117.68890 4295 ft 125 kts 102°
2026-05-04 01:42 33.99553 -117.67869 4293 ft 122 kts 102°
2026-05-04 01:42 33.99423 -117.66864 4294 ft 121 kts 101°
2026-05-04 01:42 33.99297 -117.65859 4294 ft 121 kts 101°
2026-05-04 01:43 33.99175 -117.64875 4292 ft 120 kts 102°
2026-05-04 01:43 33.99057 -117.63880 4294 ft 120 kts 101°
2026-05-04 01:43 33.98943 -117.62879 4296 ft 120 kts 101°
2026-05-04 01:43 33.98818 -117.61889 4294 ft 120 kts 101°
2026-05-04 01:44 33.98696 -117.60898 4297 ft 119 kts 101°
2026-05-04 01:44 33.98567 -117.59914 4297 ft 119 kts 101°
2026-05-04 01:44 33.98441 -117.58926 4293 ft 120 kts 102°
2026-05-04 01:44 33.98319 -117.57938 4298 ft 119 kts 102°
2026-05-04 01:45 33.98199 -117.56937 4298 ft 121 kts 101°
2026-05-04 01:45 33.98156 -117.55923 4299 ft 122 kts 90°
2026-05-04 01:45 33.98173 -117.53913 4297 ft 119 kts 91°
2026-05-04 01:46 33.98177 -117.52922 4277 ft 118 kts 91°
2026-05-04 01:46 33.98190 -117.51938 4279 ft 117 kts 91°
2026-05-04 01:46 33.98207 -117.50962 4277 ft 117 kts 94°
2026-05-04 01:46 33.98268 -117.49983 4279 ft 116 kts 90°
2026-05-04 01:47 33.98328 -117.49020 4274 ft 115 kts 90°
2026-05-04 01:47 33.98384 -117.48056 4278 ft 116 kts 91°
2026-05-04 01:47 33.98443 -117.47084 4278 ft 117 kts 91°
2026-05-04 01:47 33.98496 -117.46113 4279 ft 116 kts 91°
2026-05-04 01:48 33.98541 -117.45154 4279 ft 116 kts 91°
2026-05-04 01:48 33.98585 -117.44185 4283 ft 115 kts 91°
2026-05-04 01:48 33.98625 -117.43222 4281 ft 115 kts 90°
2026-05-04 01:48 33.98650 -117.42262 4280 ft 115 kts 92°
2026-05-04 01:49 33.98684 -117.41296 4284 ft 116 kts 91°
2026-05-04 01:49 33.98723 -117.40317 4284 ft 118 kts 91°
2026-05-04 01:49 33.98773 -117.39317 4293 ft 122 kts 91°
2026-05-04 01:49 33.98810 -117.38314 4283 ft 117 kts 92°
2026-05-04 01:50 33.98857 -117.37334 4287 ft 119 kts 90°
2026-05-04 01:50 33.98889 -117.36338 4285 ft 119 kts 92°
2026-05-04 01:50 33.98934 -117.35352 4284 ft 117 kts 91°
2026-05-04 01:50 33.98984 -117.34374 4282 ft 117 kts 91°
2026-05-04 01:51 33.99040 -117.33411 4282 ft 117 kts 91°
2026-05-04 01:51 33.99087 -117.32427 4290 ft 120 kts 91°
2026-05-04 01:51 33.99148 -117.31424 4280 ft 121 kts 84°
2026-05-04 01:51 33.99679 -117.30680 4269 ft 125 kts 18°
2026-05-04 01:52 34.00513 -117.30449 4272 ft 121 kts 12°
2026-05-04 01:52 34.01332 -117.30231 4279 ft 120 kts 11°
2026-05-04 01:52 34.02150 -117.30020 4286 ft 120 kts 11°
2026-05-04 01:52 34.02971 -117.29808 4282 ft 120 kts 11°
2026-05-04 01:53 34.03772 -117.29584 4278 ft 115 kts 11°
2026-05-04 01:53 34.04557 -117.29370 4283 ft 116 kts 11°
2026-05-04 01:53 34.05352 -117.29191 4277 ft 117 kts 353°
2026-05-04 01:53 34.05925 -117.29713 4273 ft 105 kts 280°
2026-05-04 01:54 34.05738 -117.30474 4286 ft 96 kts 230°
2026-05-04 01:54 34.05340 -117.31132 4285 ft 99 kts 232°
2026-05-04 01:54 34.04917 -117.31801 4258 ft 103 kts 231°
2026-05-04 01:54 34.04487 -117.32483 4259 ft 101 kts 231°
2026-05-04 01:55 34.04067 -117.33158 4235 ft 101 kts 232°
2026-05-04 01:55 34.03641 -117.33826 4205 ft 101 kts 231°
2026-05-04 01:55 34.03207 -117.34507 4179 ft 103 kts 231°
2026-05-04 01:55 34.02770 -117.35194 4191 ft 103 kts 233°
2026-05-04 01:56 34.02647 -117.36040 4198 ft 107 kts 275°
2026-05-04 01:56 34.02880 -117.36908 4160 ft 112 kts 286°
2026-05-04 01:56 34.03145 -117.37836 4054 ft 117 kts 286°
2026-05-04 01:56 34.03404 -117.38748 3990 ft 116 kts 285°
2026-05-04 01:57 34.03661 -117.39661 3946 ft 114 kts 283°